sat.trackr.live / text

‹ back to catalog

STARLINK-5913

NORAD 55937 · 2023-037Z

PAYLOAD ACTIVE UNKNOWN

§ Identity

Operator
Country
US
Launch date
2023-03-17
Launch site
AFWTR
Launch vehicle
Mass (kg)
RCS (m²)

Purposes: comms

External: N2YO · Heavens-Above · Gunter

§ Orbital elements

Epoch: 2026-05-25T02:14:39.231168Z

Period
96.11 min
Inclination
69.9998°
Eccentricity
0.0003339
Mean motion
14.98331141 rev/d
Perigee alt
569.7 km
Apogee alt
574.4 km
Semi-major
6,950.2 km
B*
-3.8626e-7
RAAN
91.8625°
Arg perigee
266.4426°
Mean anomaly
93.6351°
Rev number
17,542

§ Raw data

STARLINK-59131 55937U 23037Z   26145.09350962 -.00000098  00000+0 -38626-6 0  99952 55937  69.9998  91.8625 0003339 266.4426  93.6351 14.98331141175421

JSON: /api/v1/satellites/55937 · /tle

For live sub-satellite position, see the globe view (requires WebGL).

§ Visibility from observer

Set your observer location to see the next 7 days of passes ≥ 10°. The values pass through the URL so the page stays shareable.

No JS? Fill the form by hand. The geolocation button needs JavaScript.